This demonstration page uses our WeatherBlox Daily Observations layout. Learn more.

Left ArrowRight Arrow

Hourly Observations for July 21, 2016

Temp ( °F °C ) Dew Point ( °F °C ) Humidity (%) Winds ( mph kmh ) Pressure ( in mb ) Visibility ( mi km ) Precip ( " mm )
12:53 am 00:53 Clear 82 27.8 66 18.9 58 58 S 10 17 29.91 1013 10 16 0.00 0.00
1:53 am 01:53 Clear 80 26.7 66 18.9 62 62 S 9 15 29.91 1013 10 16 0.00 0.00
2:53 am 02:53 Clear 80 26.7 66 18.9 62 62 S 8 13 29.90 1013 10 16 0.00 0.00
3:53 am 03:53 Clear 78 25.6 66 18.9 67 67 S 12 19 29.90 1012 10 16 0.00 0.00
4:53 am 04:53 Clear 79 26.1 66 18.9 65 65 S 12 19 29.89 1012 10 16 0.00 0.00
5:53 am 05:53 Clear 77 25 67 19.4 71 71 S 13 20 29.88 1012 10 16 0.00 0.00
6:53 am 06:53 Sunny 76 24.4 67 19.4 74 74 SSW 10 17 29.90 1012 10 16 0.00 0.00
7:53 am 07:53 Sunny 78 25.6 67 19.4 69 69 SSW 13 20 29.89 1012 10 16 0.00 0.00
8:53 am 08:53 Sunny 82 27.8 68 20 63 63 SSW 9 15 29.90 1013 10 16 0.00 0.00
9:53 am 09:53 Sunny 85 29.4 70 21.1 61 61 WSW 13 20 29.92 1013 10 16 0.00 0.00
10:53 am 10:53 Sunny 88 31.1 70 21.1 55 55 WSW 10 17 29.92 1013 10 16 0.00 0.00
11:53 am 11:53 Sunny 90 32.2 70 21.1 52 52 SSW 12 19 29.92 1013 10 16 0.00 0.00
12:53 pm 12:53 Sunny 91 32.8 70 21.1 50 50 SSW 8 13 29.92 1013 10 16 0.00 0.00
1:53 pm 13:53 Sunny 94 34.4 72 22.2 49 49 SSW 8 13 29.91 1013 10 16 0.00 0.00
2:53 pm 14:53 Sunny 95 35 71 21.7 46 46 SSW 8 13 29.91 1013 10 16 0.00 0.00
3:53 pm 15:53 Sunny 97 36.1 72 22.2 45 45 S 8 13 29.88 1012 10 16 0.00 0.00
4:53 pm 16:53 Sunny 98 36.7 69 20.6 39 39 S 9 15 29.88 1012 10 16 0.00 0.00
5:53 pm 17:53 Sunny 99 37.2 70 21.1 39 39 S 10 17 29.86 1011 10 16 0.00 0.00
6:53 pm 18:53 Sunny 97 36.1 70 21.1 42 42 S 9 15 29.86 1011 10 16 0.00 0.00
7:53 pm 19:53 Sunny 94 34.4 70 21.1 46 46 S 7 11 29.86 1011 10 16 0.00 0.00
8:53 pm 20:53 Sunny 93 33.9 68 20 44 44 SSE 8 13 29.86 1011 10 16 0.00 0.00
9:53 pm 21:53 Clear 89 31.7 70 21.1 53 53 SSE 8 13 29.88 1012 10 16 0.00 0.00
10:53 pm 22:53 Clear 86 30 70 21 59 59 SSE 9 15 29.85 1011 10 16 0.00 0.00
11:53 pm 23:53 Clear 84 28.9 69 20.6 61 61 SSE 8 13 29.88 1012 10 16 0.00 0.00

Powered by AerisWeather